Alma, MI

12:49 AM EST on February 21, 2018 (GMT -0500)
Gratiot Community

Weather History for KAMN - October, 2013

Change the Weather History Date:

Saturday, October 5, 2013

  Actual Average Record
Temperature  
Mean Temperature 66 °F -  
Max Temperature 72 °F 64 °F 84 °F (2007)
Min Temperature 61 °F 41 °F 23 °F (2004)
Cooling Degree Days 2    
Growing Degree Days 16 (Base 50)    
Moisture  
Dew Point 63 °F    
Average Humidity 93    
Maximum Humidity 97    
Minimum Humidity 83    
Precipitation  
Precipitation 0.00 in - - ()
Sea Level Pressure  
Sea Level Pressure 29.98 in    
Wind  
Wind Speed 6 mph (ENE)    
Max Wind Speed 12 mph    
Max Gust Speed -    
Visibility 7 miles    
Events Rain    
Averages and records for this station are not official NWS values.
T = Trace of Precipitation, MM = Missing Value Source: NWS Daily Summary

Daily Weather History Graph

Daily Weather History Graph

Search for Another Location

Airport or City:

Trip Planner

Search our weather history database for the weather conditions in past years. The results will help you decide how hot, cold, wet, or windy it might be!

Date:

Astronomy

Oct. 05, 2013 Rise Set
Actual Time 7:41 AM EDT 7:12 PM EDT
Civil Twilight 7:12 AM EDT 7:40 PM EDT
Nautical Twilight 6:39 AM EDT 8:13 PM EDT
Astronomical Twilight 6:06 AM EDT 8:46 PM EDT
Moon 8:21 AM EDT (10/5) 7:28 PM EDT (10/5)
Length of Visible Light 12h 28m
Length of Day
11h 31m
New Moon, 0% of the Moon is Illuminated
Oct 5
New Moon
Oct 11
First Quarter
Oct 18
Full
Oct 26
Last Quarter
Nov 3
New

Hourly Weather History & Observations

Time (EDT) Temp. Dew Point Humidity Pressure Visibility Wind Dir Wind Speed Gust Speed Precip Events Conditions
12:13 AM 61.7 °F 60.1 °F 94% 30.06 in 7.0 mi ENE 4.6 mph - N/A   Overcast
12:33 AM 61.7 °F 59.9 °F 94% 30.05 in 10.0 mi NE 3.5 mph - N/A   Overcast
12:52 AM 61.7 °F 59.9 °F 94% 30.05 in 10.0 mi NE 4.6 mph - N/A   Overcast
1:12 AM 61.7 °F 59.9 °F 94% 30.04 in 10.0 mi NNE 5.8 mph - N/A   Overcast
1:33 AM 61.7 °F 59.9 °F 94% 30.04 in 10.0 mi NE 5.8 mph - N/A   Overcast
1:53 AM 61.7 °F 59.9 °F 94% 30.05 in 10.0 mi NE 6.9 mph - N/A   Overcast
2:13 AM 61.7 °F 60.1 °F 94% 30.05 in 7.0 mi NNE 9.2 mph - N/A   Overcast
2:33 AM 61.7 °F 60.1 °F 94% 30.04 in 7.0 mi ENE 9.2 mph - N/A   Overcast
2:53 AM 61.7 °F 60.3 °F 95% 30.05 in 7.0 mi ENE 4.6 mph - N/A   Overcast
3:13 AM 61.7 °F 60.3 °F 95% 30.05 in 4.0 mi SE 3.5 mph - N/A Rain Rain
3:33 AM 61.7 °F 60.3 °F 95% 30.04 in 5.0 mi ENE 6.9 mph - N/A Rain Rain
3:53 AM 61.5 °F 60.3 °F 96% 30.05 in 4.0 mi Calm Calm - N/A Rain Rain
4:13 AM 61.5 °F 60.3 °F 96% 30.03 in 5.0 mi North 6.9 mph - N/A Rain Rain
4:34 AM 61.3 °F 60.3 °F 96% 30.02 in 5.0 mi NE 6.9 mph - N/A Rain Light Rain
4:54 AM 61.3 °F 60.3 °F 96% 30.03 in 5.0 mi NE 6.9 mph - N/A   Overcast
5:14 AM 61.7 °F 60.4 °F 96% 30.04 in 7.0 mi NE 5.8 mph - N/A Rain Light Rain
5:34 AM 61.7 °F 60.4 °F 96% 30.03 in 7.0 mi ENE 11.5 mph - N/A Rain Light Rain
5:54 AM 61.7 °F 60.8 °F 97% 30.04 in 5.0 mi East 6.9 mph - N/A   Overcast
6:14 AM 61.7 °F 60.8 °F 97% 30.05 in 5.0 mi East 9.2 mph - N/A Rain Light Rain
6:34 AM 61.7 °F 60.8 °F 97% 30.05 in 7.0 mi East 5.8 mph - N/A   Drizzle
6:54 AM 61.7 °F 60.6 °F 96% 30.05 in 7.0 mi East 4.6 mph - N/A Rain Rain
7:14 AM 61.7 °F 60.3 °F 95% 30.05 in 5.0 mi ENE 4.6 mph - N/A Rain Light Rain
7:34 AM 61.7 °F 60.6 °F 96% 30.05 in 7.0 mi East 9.2 mph - N/A Rain Light Rain
7:55 AM 61.7 °F 60.4 °F 96% 30.04 in 7.0 mi East 8.1 mph - N/A Rain Light Rain
8:15 AM 61.7 °F 60.3 °F 95% 30.06 in 4.0 mi ENE 4.6 mph - N/A Rain Rain
8:30 AM 61.7 °F 60.4 °F 96% 30.04 in 4.0 mi ENE 9.2 mph - N/A Rain Rain
8:50 AM 61.7 °F 60.4 °F 96% 30.02 in 4.0 mi ENE 9.2 mph - N/A Rain Light Rain
9:10 AM 61.7 °F 60.8 °F 97% 30.02 in 7.0 mi East 6.9 mph - N/A   Overcast
9:30 AM 62.1 °F 61.0 °F 96% 30.02 in 5.0 mi East 6.9 mph - N/A   Overcast
9:50 AM 62.8 °F 61.7 °F 96% 30.03 in 5.0 mi East 4.6 mph - N/A   Overcast
10:10 AM 62.6 °F 61.7 °F 97% 30.03 in 5.0 mi NE 4.6 mph - N/A   Overcast
10:30 AM 63.0 °F 61.9 °F 96% 30.02 in 5.0 mi NE 6.9 mph - N/A   Overcast
10:51 AM 63.3 °F 62.1 °F 96% 30.01 in 5.0 mi ENE 9.2 mph - N/A   Overcast
11:11 AM 63.5 °F 62.2 °F 96% 30.02 in 5.0 mi NE 8.1 mph - N/A   Overcast
11:31 AM 63.9 °F 62.6 °F 96% 30.02 in 5.0 mi ENE 6.9 mph - N/A   Overcast
11:51 AM 64.4 °F 62.8 °F 94% 30.01 in 7.0 mi ENE 8.1 mph - N/A   Overcast
12:11 PM 64.2 °F 62.6 °F 94% 30.01 in 5.0 mi ENE 11.5 mph - N/A   Overcast
12:31 PM 64.4 °F 62.8 °F 94% 30.01 in 5.0 mi East 8.1 mph - N/A   Overcast
12:51 PM 64.8 °F 63.3 °F 95% 30.01 in 5.0 mi East 9.2 mph - N/A   Overcast
1:11 PM 65.5 °F 63.5 °F 93% 30.01 in 7.0 mi East 10.4 mph - N/A   Overcast
1:31 PM 66.2 °F 63.7 °F 92% 29.99 in 10.0 mi East 6.9 mph - N/A   Overcast
1:52 PM 65.8 °F 63.5 °F 92% 29.98 in 10.0 mi East 4.6 mph - N/A   Overcast
2:12 PM 67.1 °F 64.4 °F 91% 29.97 in 10.0 mi East 8.1 mph - N/A   Overcast
2:32 PM 67.3 °F 64.6 °F 91% 29.97 in 10.0 mi ENE 9.2 mph - N/A   Overcast
2:52 PM 67.6 °F 64.8 °F 90% 29.96 in 10.0 mi East 8.1 mph - N/A   Overcast
3:12 PM 68.4 °F 65.5 °F 90% 29.96 in 10.0 mi ENE 8.1 mph - N/A   Overcast
3:32 PM 68.9 °F 65.8 °F 90% 29.94 in 10.0 mi ENE 8.1 mph - N/A   Overcast
3:52 PM 70.3 °F 66.6 °F 88% 29.93 in 10.0 mi East 11.5 mph - N/A   Overcast
4:12 PM 71.1 °F 66.9 °F 87% 29.91 in 10.0 mi East 10.4 mph - N/A   Mostly Cloudy
4:33 PM 71.1 °F 66.9 °F 87% 29.91 in 10.0 mi East 5.8 mph - N/A   Overcast
4:53 PM 71.8 °F 67.1 °F 85% 29.91 in 10.0 mi East 5.8 mph - N/A   Overcast
5:13 PM 72.5 °F 67.1 °F 83% 29.91 in 10.0 mi East 6.9 mph - N/A   Overcast
5:33 PM 72.9 °F 67.3 °F 83% 29.91 in 10.0 mi East 5.8 mph - N/A   Overcast
5:53 PM 72.5 °F 67.3 °F 84% 29.90 in 10.0 mi ENE 5.8 mph - N/A   Overcast
6:13 PM 71.8 °F 67.3 °F 86% 29.90 in 10.0 mi ENE 5.8 mph - N/A   Overcast
6:33 PM 71.8 °F 67.3 °F 86% 29.90 in 7.0 mi East 5.8 mph - N/A   Overcast
6:53 PM 71.8 °F 67.3 °F 86% 29.89 in 7.0 mi East 6.9 mph - N/A   Overcast
7:13 PM 71.6 °F 67.3 °F 86% 29.90 in 7.0 mi East 8.1 mph - N/A   Overcast
7:34 PM 70.7 °F 67.1 °F 88% 29.89 in 7.0 mi East 6.9 mph - N/A   Overcast
7:54 PM 69.8 °F 67.1 °F 91% 29.89 in 5.0 mi East 8.1 mph - N/A Rain Light Rain
8:14 PM 69.4 °F 67.1 °F 92% 29.89 in 5.0 mi Calm Calm - N/A   Overcast
8:34 PM 68.9 °F 67.1 °F 94% 29.89 in 4.0 mi East 3.5 mph - N/A   Overcast
8:54 PM 69.1 °F 67.1 °F 93% 29.89 in 4.0 mi East 5.8 mph - N/A   Mostly Cloudy
9:14 PM 69.4 °F 67.5 °F 93% 29.89 in 5.0 mi East 5.8 mph - N/A   Mostly Cloudy
9:34 PM 69.8 °F 67.5 °F 92% 29.88 in 5.0 mi East 6.9 mph - N/A   Overcast
9:54 PM 69.8 °F 67.5 °F 92% 29.87 in 5.0 mi ESE 6.9 mph - N/A   Mostly Cloudy
10:15 PM 69.8 °F 67.6 °F 93% 29.86 in 5.0 mi ESE 6.9 mph - N/A   Overcast
10:35 PM 69.8 °F 67.6 °F 93% 29.86 in 5.0 mi SE 5.8 mph - N/A Rain Rain
10:55 PM 69.4 °F 67.5 °F 93% 29.84 in 5.0 mi ESE 9.2 mph - N/A Rain Light Rain
11:15 PM 69.3 °F 67.3 °F 93% 29.83 in 7.0 mi SE 6.9 mph - N/A   Light Drizzle
11:35 PM 69.3 °F 67.3 °F 93% 29.83 in 7.0 mi SE 10.4 mph - N/A   Overcast
11:50 PM 69.3 °F 67.3 °F 93% 29.82 in 10.0 mi SE 9.2 mph - N/A   Overcast